DW6733 Weather Reports


time (UTC)temp
C
wind
direction
speed
KPH
gust
KPH
rain 1hr
cm
rain 24hr
cm
rain mn
cm
humidity
%
barometer
mb
20260903025606 25 0 0.0 0.0 0.00 0.00 0.00 90 1015.9
20260903024906 25 0 0.0 0.0 0.00 0.00 0.00 89 1016.0
20260903024206 25 0 0.0 0.0 0.00 0.00 0.00 89 1016.0
20260903023506 25 0 0.0 0.0 0.00 0.00 0.00 88 1016.1
20260903022806 25 0 0.0 0.0 0.00 0.00 0.00 89 1016.1
20260903022106 25 0 0.0 0.0 0.00 0.00 0.00 88 1016.1
20260903021406 25 0 0.0 0.0 0.00 0.00 0.00 89 1016.0
20260903020706 25 0 0.0 0.0 0.00 0.00 0.00 89 1016.0
20260903020006 25 0 0.0 0.0 0.00 0.00 0.00 88 1016.0
20260903015606 25 0 0.0 0.0 0.00 0.00 0.00 87 1016.0
20260903014906 26 0 0.0 0.0 0.00 0.00 0.00 87 1015.9
20260903014206 26 0 0.0 0.0 0.00 0.00 0.00 87 1015.9
20260903013506 26 0 0.0 0.0 0.00 0.00 0.00 86 1015.9
20260903012806 26 0 0.0 0.0 0.00 0.00 0.00 86 1015.8
20260903012127 26 0 0.0 0.0 0.00 0.00 0.00 86 1015.8
20260903011406 26 0 0.0 0.0 0.00 0.00 0.00 85 1015.7
20260903010706 27 0 0.0 0.0 0.00 0.00 0.00 84 1015.6
20260903010006 27 0 0.0 0.0 0.00 0.00 0.00 84 1015.6
20260903005606 27 0 0.0 0.0 0.00 0.00 0.00 83 1015.6
20260903004906 27 0 0.0 0.0 0.00 0.00 0.00 81 1015.5
20260903004206 28 0 0.0 0.0 0.00 0.00 0.00 81 1015.5
20260903003506 28 0 0.0 0.0 0.00 0.00 0.00 80 1015.4
20260903002806 29 0 0.0 0.0 0.00 0.00 0.00 78 1015.3
20260903002106 30 0 0.0 0.0 0.00 0.00 0.00 77 1015.3
20260903001406 30 9 0.0 1.6 0.00 0.00 0.00 76 1015.3
20260903000706 31 46 1.6 3.2 0.00 0.00 0.00 74 1015.4
20260903000006 31 182 1.6 3.2 0.00 0.00 0.00 74 1015.3
20260902235606 31 182 1.6 3.2 0.00 0.00 0.00 72 1015.3
20260902234927 32 182 0.0 3.2 0.00 0.00 0.00 70 1015.3
20260902234206 32 182 0.0 1.6 0.00 0.00 0.00 69 1015.3
20260902233506 33 182 1.6 3.2 0.00 0.00 0.00 68 1015.2
20260902232806 33 182 1.6 4.8 0.00 0.00 0.00 65 1015.3
20260902232106 33 183 1.6 4.8 0.00 0.00 0.00 65 1015.3
20260902231426 34 205 1.6 4.8 0.00 0.00 0.00 63 1015.3
20260902230727 34 227 1.6 4.8 0.00 0.00 0.00 61 1015.3
20260902230026 34 205 1.6 4.8 0.00 0.00 0.00 59 1015.3
20260902225606 35 199 1.6 3.2 0.00 0.00 0.00 61 1015.3
20260902224906 35 190 1.6 4.8 0.00 0.00 0.00 61 1015.4
20260902224205 35 197 1.6 8.0 0.00 0.00 0.00 59 1015.4
20260902223505 35 208 1.6 8.0 0.00 0.00 0.00 59 1015.3
20260902222805 35 206 3.2 4.8 0.00 0.00 0.00 58 1015.4
20260902222106 35 203 1.6 4.8 0.00 0.00 0.00 59 1015.4
20260902221405 35 219 1.6 9.7 0.00 0.00 0.00 59 1015.4
20260902220705 35 228 3.2 9.7 0.00 0.00 0.00 58 1015.5
20260902220026 34 218 3.2 16.1 0.00 0.00 0.00 59 1015.6
20260902215605 34 229 3.2 16.1 0.00 0.00 0.00 58 1015.5
20260902214905 34 241 3.2 12.9 0.00 0.00 0.00 59 1015.6
20260902214205 34 255 4.8 14.5 0.00 0.00 0.00 57 1015.6
20260902213505 35 230 4.8 16.1 0.00 0.00 0.00 55 1015.6
20260902212805 35 213 3.2 9.7 0.00 0.00 0.00 57 1015.6
20260902212105 35 215 4.8 9.7 0.00 0.00 0.00 56 1015.7
20260902211405 35 211 1.6 8.0 0.00 0.00 0.00 59 1015.7
20260902210705 34 209 3.2 6.4 0.00 0.00 0.00 58 1015.7
20260902210005 34 227 3.2 12.9 0.00 0.00 0.00 56 1015.8
20260902205605 34 242 4.8 12.9 0.00 0.00 0.00 57 1015.8
20260902204905 34 245 4.8 16.1 0.00 0.00 0.00 58 1015.8
20260902204205 34 236 4.8 12.9 0.00 0.00 0.00 57 1015.9
20260902203505 34 245 6.4 12.9 0.00 0.00 0.00 55 1016.0
20260902202805 35 227 4.8 12.9 0.00 0.00 0.00 56 1016.0
20260902202105 35 219 4.8 12.9 0.00 0.00 0.00 58 1016.0
20260902201405 35 207 6.4 12.9 0.00 0.00 0.00 52 1016.1
20260902200705 35 192 6.4 16.1 0.00 0.00 0.00 56 1016.1
20260902200005 35 186 6.4 16.1 0.00 0.00 0.00 57 1016.1
20260902195605 35 183 6.4 16.1 0.00 0.00 0.00 56 1016.2
20260902194905 34 190 6.4 16.1 0.00 0.00 0.00 56 1016.3
20260902194205 34 197 4.8 14.5 0.00 0.00 0.00 58 1016.4
20260902193505 34 195 6.4 14.5 0.00 0.00 0.00 59 1016.5
20260902192805 34 189 6.4 14.5 0.00 0.00 0.00 58 1016.6
20260902192126 33 219 4.8 12.9 0.00 0.00 0.00 64 1016.6
20260902191405 33 244 4.8 12.9 0.00 0.00 0.00 61 1016.8
20260902190705 33 255 4.8 14.5 0.00 0.00 0.00 62 1016.8
20260902190005 33 238 4.8 14.5 0.00 0.00 0.00 61 1016.9
20260902185626 33 226 6.4 17.7 0.00 0.00 0.00 59 1016.9
20260902184926 33 236 6.4 17.7 0.00 0.00 0.00 59 1016.9
20260902184205 33 246 8.0 16.1 0.00 0.00 0.00 57 1017.0
20260902183505 33 223 6.4 16.1 0.00 0.00 0.00 61 1017.0
20260902182805 33 217 6.4 16.1 0.00 0.00 0.00 59 1017.0
20260902182105 33 204 4.8 16.1 0.00 0.00 0.00 60 1017.0
20260902181405 33 207 4.8 16.1 0.00 0.00 0.00 62 1017.1
20260902180705 33 221 4.8 11.3 0.00 0.00 0.00 63 1017.3
20260902180007 33 219 6.4 12.9 0.00 0.00 0.00 63 1017.3
20260902175605 33 206 6.4 14.5 0.00 0.00 0.00 61 1017.4
20260902174905 33 203 6.4 16.1 0.00 0.00 0.00 63 1017.5
20260902174226 33 229 4.8 14.5 0.00 0.00 0.00 66 1017.6
20260902173526 33 220 6.4 14.5 0.00 0.00 0.00 65 1017.7
20260902172804 33 226 6.4 14.5 0.00 0.00 0.00 65 1017.7
20260902172105 33 224 4.8 14.5 0.00 0.00 0.00 65 1017.8
20260902171405 33 209 4.8 14.5 0.00 0.00 0.00 67 1017.9
20260902170726 32 188 6.4 12.9 0.00 0.00 0.00 69 1017.8
20260902170004 32 227 4.8 11.3 0.00 0.00 0.00 68 1017.8
20260902165626 32 232 4.8 9.7 0.00 0.00 0.00 66 1017.8
20260902164925 32 216 4.8 9.7 0.00 0.00 0.00 69 1017.9
20260902164204 32 207 4.8 11.3 0.00 0.00 0.00 66 1017.9
20260902163525 32 191 4.8 11.3 0.00 0.00 0.00 69 1017.9
20260902162804 32 240 3.2 8.0 0.00 0.00 0.00 70 1018.0
20260902162104 32 215 4.8 16.1 0.00 0.00 0.00 70 1018.0
20260902161405 32 221 4.8 16.1 0.00 0.00 0.00 72 1018.0
20260902160704 32 225 4.8 11.3 0.00 0.00 0.00 70 1018.1
20260902160007 32 201 4.8 11.3 0.00 0.00 0.00 68 1018.1
20260902155604 31 202 4.8 11.3 0.00 0.00 0.00 70 1018.1
20260902154904 31 224 4.8 12.9 0.00 0.00 0.00 68 1018.0
20260902154204 31 221 3.2 8.0 0.00 0.00 0.00 72 1018.1
20260902153504 31 207 4.8 8.0 0.00 0.00 0.00 71 1018.2
20260902152804 31 214 4.8 9.7 0.00 0.00 0.00 71 1018.2
20260902152104 31 204 4.8 9.7 0.00 0.00 0.00 69 1018.2
20260902151404 30 196 4.8 9.7 0.00 0.00 0.00 73 1018.2
20260902150704 30 224 4.8 9.7 0.00 0.00 0.00 74 1018.3
20260902150025 30 213 4.8 9.7 0.00 0.00 0.00 74 1018.3
20260902145604 30 216 4.8 11.3 0.00 0.00 0.00 76 1018.4
20260902144904 30 208 4.8 11.3 0.00 0.00 0.00 74 1018.3
20260902144204 29 219 4.8 11.3 0.00 0.00 0.00 77 1018.3
20260902143504 28 230 4.8 9.7 0.00 0.00 0.00 76 1018.3
20260902142804 28 202 3.2 9.7 0.00 0.00 0.00 80 1018.3
20260902142104 28 212 3.2 8.0 0.00 0.00 0.00 81 1018.2
20260902141404 28 219 3.2 8.0 0.00 0.00 0.00 82 1018.2
20260902140704 27 214 3.2 8.0 0.00 0.00 0.00 82 1018.2
20260902140025 27 219 3.2 6.4 0.00 0.00 0.00 83 1018.2
20260902135625 27 209 3.2 6.4 0.00 0.00 0.00 84 1018.2
20260902134904 26 235 3.2 6.4 0.00 0.00 0.00 84 1018.3
20260902134204 26 215 3.2 8.0 0.00 0.00 0.00 86 1018.3
20260902133504 26 211 3.2 8.0 0.00 0.00 0.00 87 1018.3
20260902132804 25 198 3.2 11.3 0.00 0.00 0.00 88 1018.3
20260902132104 25 191 4.8 11.3 0.00 0.00 0.00 89 1018.3
20260902131404 25 208 4.8 9.7 0.00 0.00 0.00 91 1018.3
20260902130704 24 205 4.8 12.9 0.00 0.00 0.00 92 1018.3
20260902130004 24 202 4.8 11.3 0.00 0.00 0.00 94 1018.3
20260902125625 23 196 3.2 9.7 0.00 0.00 0.00 95 1018.3
20260902124904 23 186 3.2 8.0 0.00 0.00 0.00 96 1018.3
20260902124225 23 199 1.6 6.4 0.00 0.00 0.00 96 1018.2
20260902123504 23 188 0.0 4.8 0.00 0.00 0.00 96 1018.1
20260902122804 23 196 0.0 4.8 0.00 0.00 0.00 96 1018.1
20260902122104 22 0 0.0 0.0 0.00 0.00 0.00 96 1018.1
20260902121404 22 0 0.0 0.0 0.00 0.00 0.00 96 1018.0
20260902120725 21 0 0.0 0.0 0.00 0.00 0.00 95 1018.0
20260902120004 21 0 0.0 0.0 0.00 0.00 0.00 95 1018.0
20260902115625 21 0 0.0 0.0 0.00 0.00 0.00 95 1017.9
20260902114904 20 0 0.0 0.0 0.00 0.00 0.00 94 1017.8
20260902114225 20 0 0.0 0.0 0.00 0.00 0.00 94 1017.8
20260902113504 20 0 0.0 0.0 0.00 0.00 0.00 94 1017.6
20260902112804 20 0 0.0 0.0 0.00 0.00 0.00 94 1017.6
20260902112104 20 0 0.0 0.0 0.00 0.00 0.00 94 1017.6
20260902111425 20 0 0.0 0.0 0.00 0.00 0.00 94 1017.6
20260902110704 20 0 0.0 0.0 0.00 0.00 0.00 94 1017.5
20260902110025 20 0 0.0 0.0 0.00 0.00 0.00 94 1017.5
20260902105604 20 0 0.0 0.0 0.00 0.00 0.00 94 1017.6
20260902104925 20 0 0.0 0.0 0.00 0.00 0.00 94 1017.5
20260902104225 20 0 0.0 0.0 0.00 0.00 0.00 94 1017.5
20260902103504 21 0 0.0 0.0 0.00 0.00 0.00 94 1017.5
20260902102803 21 0 0.0 0.0 0.00 0.00 0.00 94 1017.5
20260902102125 21 0 0.0 0.0 0.00 0.00 0.00 94 1017.5
20260902101404 21 0 0.0 0.0 0.00 0.00 0.00 94 1017.6
20260902100703 21 0 0.0 0.0 0.00 0.00 0.00 93 1017.5
20260902100003 21 0 0.0 0.0 0.00 0.00 0.00 93 1017.5
20260902095603 21 0 0.0 0.0 0.00 0.00 0.00 93 1017.5
20260902094904 21 0 0.0 0.0 0.00 0.00 0.00 93 1017.5
20260902094203 21 0 0.0 0.0 0.00 0.00 0.00 93 1017.4
20260902093524 21 0 0.0 0.0 0.00 0.00 0.00 93 1017.4
20260902092824 21 0 0.0 0.0 0.00 0.00 0.00 93 1017.4
20260902092103 21 0 0.0 0.0 0.00 0.00 0.00 93 1017.3
20260902091424 21 0 0.0 0.0 0.00 0.00 0.00 93 1017.3
20260902090703 21 0 0.0 0.0 0.00 0.00 0.00 93 1017.2
20260902090024 21 0 0.0 0.0 0.00 0.00 0.00 93 1017.2
20260902085603 21 0 0.0 0.0 0.00 0.00 0.00 93 1017.2
20260902084924 21 0 0.0 0.0 0.00 0.00 0.00 93 1017.1
20260902084203 21 0 0.0 0.0 0.00 0.00 0.00 93 1017.0
20260902083503 21 0 0.0 0.0 0.00 0.00 0.00 93 1016.9
20260902082803 21 0 0.0 0.0 0.00 0.00 0.00 93 1016.9
20260902082124 21 0 0.0 0.0 0.00 0.00 0.00 93 1016.8
20260902081403 21 0 0.0 0.0 0.00 0.00 0.00 93 1016.8
20260902080703 21 0 0.0 0.0 0.00 0.00 0.00 93 1016.7
20260902080003 21 0 0.0 0.0 0.00 0.00 0.00 94 1016.7
20260902075603 21 0 0.0 0.0 0.00 0.00 0.00 93 1016.7
20260902074903 22 0 0.0 0.0 0.00 0.00 0.00 93 1016.6
20260902074224 22 0 0.0 0.0 0.00 0.00 0.00 93 1016.7
20260902073503 22 0 0.0 0.0 0.00 0.00 0.00 94 1016.7
20260902072803 22 0 0.0 0.0 0.00 0.00 0.00 93 1016.6
20260902072103 22 0 0.0 0.0 0.00 0.00 0.00 93 1016.6
20260902071424 22 0 0.0 0.0 0.00 0.00 0.00 93 1016.6
20260902070724 22 0 0.0 0.0 0.00 0.00 0.00 93 1016.7
20260902070003 22 0 0.0 0.0 0.00 0.00 0.00 93 1016.8
20260902065603 22 0 0.0 0.0 0.00 0.00 0.00 93 1016.7
20260902064924 22 0 0.0 0.0 0.00 0.00 0.00 92 1016.7
20260902064207 22 0 0.0 0.0 0.00 0.00 0.00 91 1016.7
20260902063507 22 0 0.0 0.0 0.00 0.00 0.00 91 1016.7
20260902062828 22 0 0.0 0.0 0.00 0.00 0.00 91 1016.7
20260902062106 22 0 0.0 0.0 0.00 0.00 0.00 91 1016.8
20260902061428 22 0 0.0 0.0 0.00 0.00 0.00 92 1016.8
20260902060707 22 0 0.0 0.0 0.00 0.00 0.00 91 1016.8
20260902060007 22 0 0.0 0.0 0.00 0.00 0.00 91 1016.8
20260902055607 22 0 0.0 0.0 0.00 0.00 0.00 91 1016.8
20260902054906 22 0 0.0 0.0 0.00 0.00 0.00 91 1016.9
20260902054207 22 0 0.0 0.0 0.00 0.00 0.00 92 1016.9
20260902053507 22 0 0.0 0.0 0.00 0.00 0.00 91 1016.8
20260902052807 22 0 0.0 0.0 0.00 0.00 0.00 90 1016.8
20260902052107 22 0 0.0 0.0 0.00 0.00 0.00 90 1016.7
20260902051406 22 0 0.0 0.0 0.00 0.00 0.00 90 1016.7
20260902050727 23 0 0.0 0.0 0.00 0.00 0.00 90 1016.7
20260902050008 23 0 0.0 0.0 0.00 0.00 0.00 90 1016.8
20260902045607 23 0 0.0 0.0 0.00 0.00 0.00 90 1016.7
20260902044907 23 0 0.0 0.0 0.00 0.00 0.00 91 1016.7
20260902044206 23 0 0.0 0.0 0.00 0.00 0.00 90 1016.8
20260902043506 23 0 0.0 0.0 0.00 0.00 0.00 90 1016.8
20260902042806 23 0 0.0 0.0 0.00 0.00 0.00 90 1016.8
20260902042106 23 0 0.0 0.0 0.00 0.00 0.00 90 1016.9
20260902041406 23 0 0.0 0.0 0.00 0.00 0.00 90 1016.9
20260902040706 23 0 0.0 0.0 0.00 0.00 0.00 90 1016.8
20260902040007 23 0 0.0 0.0 0.00 0.00 0.00 90 1016.9
20260902035606 23 0 0.0 0.0 0.00 0.00 0.00 90 1016.8
20260902034906 23 0 0.0 0.0 0.00 0.00 0.00 89 1016.8
20260902034207 24 0 0.0 0.0 0.00 0.00 0.00 90 1016.8
20260902033527 24 0 0.0 0.0 0.00 0.00 0.00 89 1016.7
20260902032806 24 0 0.0 0.0 0.00 0.00 0.00 89 1016.7
20260902032127 24 0 0.0 0.0 0.00 0.00 0.00 89 1016.7
20260902031406 24 0 0.0 0.0 0.00 0.00 0.00 89 1016.8
20260902030706 24 0 0.0 0.0 0.00 0.00 0.00 89 1016.7
20260902030006 24 0 0.0 0.0 0.00 0.00 0.00 89 1016.8